Stations météo

réclame
Mon MeteoGroup
Grenoble/St.Geoirs, France (7486): Température de l'air & dewpoint: 04.12.2019 07:00:00 - 10.12.2019 07:00:00 (CET)Grenoble/St.Geoirs, France (7486): Température de l'air 5cm: 04.12.2019 07:00:00 - 10.12.2019 07:00:00 (CET)Grenoble/St.Geoirs, France (7486): Température de l'air -20cm & Température de l'air -100cm: 04.12.2019 07:00:00 - 10.12.2019 07:00:00 (CET)Grenoble/St.Geoirs, France (7486): Vitesse du vent & gusts: 04.12.2019 07:00:00 - 10.12.2019 07:00:00 (CET)Grenoble/St.Geoirs, France (7486): Direction du vent: 04.12.2019 07:00:00 - 10.12.2019 07:00:00 (CET)Grenoble/St.Geoirs, France (7486): reduced air pressure: 04.12.2019 07:00:00 - 10.12.2019 07:00:00 (CET)Grenoble/St.Geoirs, France (7486): visibility: 04.12.2019 07:00:00 - 10.12.2019 07:00:00 (CET)Grenoble/St.Geoirs, France (7486): Ensoleillement: 04.12.2019 07:00:00 - 10.12.2019 07:00:00 (CET)Grenoble/St.Geoirs, France (7486): Quantités de précipitations: 04.12.2019 07:00:00 - 10.12.2019 07:00:00 (CET)
Date & Time tt [°C] td [°C] tt 5cm [°C] tt -20cm [°C] tt -100cm [°C] ff [km/h] ff [knt] fx [km/h] fx [knt] dd ppp [hPa] vv [km] sd [min] rr [mm]
10.12.2019 07:00:00 - - - - - - - - - - - - - -
10.12.2019 06:00:00 2,9 0,3 2,0 7,1 9,5 21 12 41 22 NNW 1028,4 31 0 0,0
10.12.2019 05:00:00 3,4 0,6 2,5 7,1 9,5 26 14 48 26 NNW 1027,5 32 0 0,0
10.12.2019 04:00:00 3,8 0,8 2,9 7,1 9,5 31 17 53 29 NNW 1027,0 34 0 0,0
10.12.2019 03:00:00 4,2 0,9 3,5 7,2 9,5 28 15 57 31 NNW 1026,3 37 0 0,0
10.12.2019 02:00:00 4,5 1,3 3,9 7,2 9,5 38 20 58 31 NNW 1025,1 38 0 0,0
10.12.2019 01:00:00 4,8 1,8 3,9 7,2 9,5 26 14 58 32 NNW 1024,5 42 0 0,0
10.12.2019 00:00:00 5,0 1,7 4,0 7,2 9,5 27 15 48 26 NNW 1023,8 47 0 0,0
09.12.2019 23:00:00 4,9 2,3 4,0 7,3 9,5 24 13 63 34 NNW 1023,1 47 0 0,0
09.12.2019 22:00:00 5,6 2,4 4,4 7,3 9,5 31 17 64 35 NNW 1021,7 49 0 0,0
09.12.2019 21:00:00 5,3 3,0 4,3 7,3 9,5 35 19 53 29 NNW 1021,1 28 0 0,6
09.12.2019 20:00:00 5,4 3,7 4,3 7,2 9,5 21 11 46 25 NW 1020,0 20 0 0,6
09.12.2019 19:00:00 5,3 3,5 3,8 7,2 9,5 25 13 58 31 WNW 1018,9 57 0 0,2
09.12.2019 18:00:00 6,3 4,3 5,5 7,2 9,5 30 16 56 30 WNW 1017,7 19 0 1,0
09.12.2019 17:00:00 6,5 5,3 5,9 7,2 9,5 10 5 16 9 SSW 1016,0 13 0 0,0
09.12.2019 16:00:00 6,6 5,5 6,0 7,1 9,5 5 3 21 12 SSW 1015,7 50 0 1,2
09.12.2019 15:00:00 7,0 5,6 6,2 7,1 9,5 7 4 23 13 W 1015,2 3,6 0 1,2
09.12.2019 14:00:00 7,7 4,8 7,7 7,1 9,5 10 6 33 18 SSW 1015,1 23 2 0,0
09.12.2019 13:00:00 8,3 4,5 7,6 7,0 9,5 19 11 28 15 SW 1015,0 30 0 0,2
09.12.2019 12:00:00 8,2 4,6 6,7 7,0 9,5 12 6 24 13 SW 1015,0 53 0 0,2
09.12.2019 11:00:00 7,0 5,1 6,6 7,1 9,5 7 4 13 7 ENE 1015,3 20 0 0,0
09.12.2019 10:00:00 6,4 4,9 5,4 7,1 9,5 9 5 19 10 ENE 1015,3 36 0 0,0
09.12.2019 09:00:00 5,7 4,7 3,9 7,1 9,5 14 8 20 11 ENE 1015,7 21 0 0,0
09.12.2019 08:00:00 5,1 4,2 3,6 7,1 9,5 9 5 18 10 ENE 1015,8 27 0 0,0
09.12.2019 07:00:00 6,0 4,6 4,9 7,1 9,5 9 5 24 13 SE 1015,5 19 0 1,2
09.12.2019 06:00:00 6,7 4,4 3,3 7,1 9,5 10 5 25 14 WNW 1015,4 15 0 0,4
09.12.2019 05:00:00 6,4 3,9 3,5 7,1 9,5 10 6 21 12 SSE 1015,3 24 0 0,0
09.12.2019 04:00:00 4,1 3,5 0,8 7,1 9,5 10 5 16 9 E 1017,0 9 0 0,0
09.12.2019 03:00:00 4,8 3,9 3,1 7,1 9,5 10 5 14 8 SE 1017,6 4,3 0 0,0
09.12.2019 02:00:00 5,5 5,1 3,2 7,1 9,5 7 4 11 6 NE 1017,3 11 0 0,0
09.12.2019 01:00:00 5,8 5,1 4,8 7,1 9,5 8 4 23 13 ENE 1017,3 12 0 0,0
09.12.2019 00:00:00 6,7 6,0 6,1 7,0 9,5 16 9 27 15 ENE 1016,9 9 0 0,0
08.12.2019 23:00:00 7,3 5,9 6,7 7,0 9,6 14 8 29 15 ENE 1016,9 14 0 0,0
08.12.2019 22:00:00 9,5 6,2 8,3 6,9 9,5 9 5 19 10 S 1016,9 21 0 0,0
08.12.2019 21:00:00 9,7 6,8 7,7 6,9 9,5 10 6 38 21 S 1016,7 8 0 0,2
08.12.2019 20:00:00 9,4 6,1 7,7 6,9 9,6 13 7 35 19 W 1016,8 22 0 0,4
08.12.2019 19:00:00 10,2 4,8 6,9 6,8 9,5 11 6 32 17 S 1016,7 27 0 0,0
08.12.2019 18:00:00 9,2 4,4 5,9 6,7 9,5 4 2 34 18 W 1017,2 39 0 0,0
08.12.2019 17:00:00 9,6 3,8 6,8 6,7 9,6 12 6 24 13 SSW 1017,3 50 0 0,0
08.12.2019 16:00:00 10,8 4,0 10,0 6,7 9,6 5 3 15 8 SSW 1016,9 52 28 0,0
08.12.2019 15:00:00 11,4 5,3 12,7 6,6 9,5 10 6 22 12 ENE 1016,8 47 56 0,0
08.12.2019 14:00:00 11,5 5,1 14,2 6,6 9,6 13 7 17 9 ENE 1017,6 31 60 0,0
08.12.2019 13:00:00 10,8 4,7 12,6 6,5 9,6 13 7 21 12 ENE 1018,9 22 60 0,0
08.12.2019 12:00:00 9,5 4,7 10,2 6,6 9,6 16 9 26 14 E 1019,8 21 60 0,0
08.12.2019 11:00:00 8,0 4,0 7,6 6,6 9,6 22 12 28 15 E 1021,0 22 60 0,0
08.12.2019 10:00:00 6,1 3,3 4,0 6,6 9,6 22 12 29 16 E 1020,8 23 60 0,0
08.12.2019 09:00:00 3,2 1,6 0,3 6,7 9,6 16 9 26 14 E 1021,6 16 29 0,0
08.12.2019 08:00:00 1,4 0,4 0,6 6,7 9,6 17 9 22 12 E 1022,1 21 0 0,0
08.12.2019 07:00:00 1,9 0,7 1,1 6,8 9,6 21 12 24 13 E 1022,2 22 0 0,0
08.12.2019 06:00:00 2,7 1,8 0,2 6,8 9,6 16 9 25 13 ENE 1021,7 21 0 0,0
08.12.2019 05:00:00 1,2 0,3 -1,0 6,9 9,6 16 9 21 11 E 1022,8 16 0 0,0
08.12.2019 04:00:00 0,6 -0,3 -1,3 6,9 9,6 12 7 17 9 E 1023,2 16 0 0,0
08.12.2019 03:00:00 2,1 1,1 -0,3 6,9 9,6 8 4 19 11 E 1023,2 15 0 0,0
08.12.2019 02:00:00 2,9 0,9 0,6 6,9 9,6 16 8 22 12 ENE 1023,1 16 0 0,0
08.12.2019 01:00:00 2,3 1,7 -0,9 6,9 9,6 17 9 22 12 E 1023,4 17 0 0,0
08.12.2019 00:00:00 2,9 2,2 -0,3 6,9 9,6 7 4 14 7 ESE 1023,7 19 0 0,0
07.12.2019 23:00:00 3,0 1,7 1,7 6,9 9,6 13 7 17 9 E 1023,8 18 0 0,0
07.12.2019 22:00:00 5,3 3,9 2,7 6,9 9,6 19 10 22 12 E 1023,4 23 0 0,0
07.12.2019 21:00:00 5,6 3,8 3,1 6,9 9,6 7 4 9 5 E 1023,2 19 0 0,0
07.12.2019 20:00:00 7,0 4,6 5,5 6,8 9,6 5 3 11 6 E 1022,7 17 0 0,0
07.12.2019 19:00:00 6,9 4,6 4,4 6,7 9,7 4 2 10 6 SSE 1022,8 20 0 0,0
07.12.2019 18:00:00 7,7 5,2 5,9 6,6 9,6 11 6 16 8 ESE 1022,2 37 0 0,0
07.12.2019 17:00:00 8,7 4,9 6,0 6,6 9,7 11 6 15 8 ENE 1021,9 46 0 0,0
07.12.2019 16:00:00 12,3 6,1 12,2 6,4 9,6 8 5 13 7 N 1021,1 54 56 0,0
07.12.2019 15:00:00 13,7 5,6 17,7 6,3 9,7 4 2 17 9 ENE 1020,4 50 60 0,0
07.12.2019 14:00:00 13,7 5,1 18,5 6,3 9,7 9 5 18 10 NNW 1020,7 0,4 60 0,0
07.12.2019 13:00:00 13,2 3,8 17,3 6,2 9,7 5 3 10 6 NW 1021,0 28 58 0,0
07.12.2019 12:00:00 12,7 2,5 13,8 6,2 9,7 4 2 8 4 NNW 1021,6 29 58 0,0
07.12.2019 11:00:00 10,3 3,1 9,9 6,2 9,7 5 3 14 7 ESE 1022,7 39 54 0,0
07.12.2019 10:00:00 7,6 3,1 5,6 6,2 9,7 10 6 18 10 E 1022,7 34 5 0,0
07.12.2019 09:00:00 5,4 1,9 3,4 6,2 9,7 11 6 15 8 ENE 1022,9 14 10 0,0
07.12.2019 08:00:00 3,8 1,5 1,4 6,1 9,7 13 7 15 8 E 1022,8 26 0 0,0
07.12.2019 07:00:00 4,0 1,4 3,3 6,1 9,7 12 7 17 9 E 1022,3 25 0 0,0
07.12.2019 06:00:00 4,0 1,5 3,5 6,1 9,8 14 7 18 10 E 1021,9 25 0 0,0
07.12.2019 05:00:00 4,9 1,4 4,1 6,1 9,8 14 7 19 10 E 1021,8 27 0 0,0
07.12.2019 04:00:00 4,6 2,0 4,1 6,1 9,7 11 6 16 8 E 1022,0 22 0 0,0
07.12.2019 03:00:00 5,5 1,6 4,5 6,1 9,8 11 6 22 12 ENE 1022,1 28 0 0,0
07.12.2019 02:00:00 4,9 1,7 3,8 6,1 9,8 17 9 22 12 E 1022,0 25 0 0,0
07.12.2019 01:00:00 4,6 1,6 3,2 6,1 9,8 16 8 21 11 E 1022,4 22 0 0,0
07.12.2019 00:00:00 4,3 1,5 3,0 6,2 9,8 11 6 24 13 E 1022,9 17 0 0,0
06.12.2019 23:00:00 3,3 1,0 1,2 6,2 9,8 15 8 20 11 E 1022,7 16 0 0,0
06.12.2019 22:00:00 2,8 0,4 1,8 6,2 9,8 16 9 23 13 E 1022,9 18 0 0,0
06.12.2019 21:00:00 3,8 0,5 0,2 6,2 9,8 18 10 23 12 ENE 1022,3 16 0 0,0
06.12.2019 20:00:00 3,1 0,7 0,3 6,1 9,8 16 8 20 11 ENE 1022,6 16 0 0,0
06.12.2019 19:00:00 2,3 -0,8 0,7 6,1 9,8 13 7 21 11 E 1022,2 26 0 0,0
06.12.2019 18:00:00 3,3 -0,3 1,4 6,0 9,9 12 7 21 11 ENE 1022,1 30 0 0,0
06.12.2019 17:00:00 5,1 1,4 3,0 6,0 9,9 13 7 18 10 E 1021,8 22 29 0,0
06.12.2019 16:00:00 8,2 2,8 9,0 5,9 9,9 13 7 16 9 E 1021,3 32 60 0,0
06.12.2019 15:00:00 9,3 2,8 11,9 5,9 9,9 14 8 19 11 E 1021,3 29 60 0,0
06.12.2019 14:00:00 9,1 3,1 11,3 5,9 9,9 15 8 24 13 E 1022,0 20 60 0,0
06.12.2019 13:00:00 7,8 2,7 9,2 5,9 9,9 19 10 27 14 E 1022,8 16 60 0,0
06.12.2019 12:00:00 6,2 1,9 6,3 5,9 9,9 19 11 26 14 ENE 1024,1 15 60 0,0
06.12.2019 11:00:00 3,9 2,1 2,7 5,9 9,9 22 12 30 16 E 1025,2 10 60 0,0
06.12.2019 10:00:00 1,3 0,7 -0,1 6,0 9,9 20 11 26 14 E 1025,8 9 60 0,0
06.12.2019 09:00:00 -0,3 -0,6 -2,1 6,0 10,0 21 11 27 15 E 1025,7 7 31 0,0
06.12.2019 08:00:00 -1,4 -1,7 -2,3 6,0 9,9 21 11 28 15 E 1025,7 10 0 0,0
06.12.2019 07:00:00 -1,3 -1,3 -2,1 6,1 10,0 19 10 26 14 E 1025,6 1,0 0 0,0
06.12.2019 06:00:00 -1,3 -1,4 -2,0 6,1 10,0 19 10 26 14 E 1025,5 0,8 0 0,0
06.12.2019 05:00:00 -1,2 -1,2 -1,7 6,1 10,0 19 10 24 13 E 1025,6 0,3 0 0,0
06.12.2019 04:00:00 -1,1 -1,1 -1,9 6,1 10,0 16 9 23 13 E 1025,7 0,2 0 0,0
06.12.2019 03:00:00 -0,9 -0,9 -1,5 6,2 10,0 16 8 22 12 ENE 1025,7 0,4 0 0,0
06.12.2019 02:00:00 -0,3 -0,3 -0,5 6,2 10,0 18 10 23 12 E 1025,5 0,1 0 0,0
06.12.2019 01:00:00 -0,3 -0,3 -0,5 6,2 10,0 14 7 26 14 E 1025,9 0,1 0 0,0
06.12.2019 00:00:00 -0,3 -0,3 -0,7 6,3 10,0 21 11 28 15 E 1026,3 0,1 0 0,0
05.12.2019 23:00:00 -0,4 -0,4 -1,4 6,3 10,1 18 10 26 14 E 1026,6 0,1 0 0,0
05.12.2019 22:00:00 -0,4 -0,8 -1,4 6,3 10,0 14 8 22 12 ENE 1026,5 0,3 0 0,0
05.12.2019 21:00:00 0,5 0,2 -1,8 6,3 10,1 16 9 21 11 ENE 1026,4 3,1 0 0,0
05.12.2019 20:00:00 -1,3 -1,6 -2,8 6,3 10,1 16 9 19 10 E 1026,7 3,7 0 0,0
05.12.2019 19:00:00 0,7 0,3 -2,7 6,3 10,1 13 7 17 9 ENE 1025,9 3,5 0 0,0
05.12.2019 18:00:00 1,2 0,0 -3,0 6,2 10,1 9 5 11 6 ESE 1025,5 9 0 0,0
05.12.2019 17:00:00 3,8 1,2 -1,3 6,1 10,1 0 0 3 2 N 1024,3 12 0 0,0
05.12.2019 16:00:00 6,1 1,6 5,0 6,1 10,1 0 0 6 3 N 1023,8 15 11 0,0
05.12.2019 15:00:00 6,9 1,2 9,5 6,1 10,1 3 2 10 6 N 1023,8 16 60 0,0
05.12.2019 14:00:00 6,6 1,9 8,2 6,0 10,1 6 4 13 7 E 1023,9 12 35 0,0
05.12.2019 13:00:00 6,2 2,3 8,3 6,1 10,1 6 3 13 7 E 1024,1 9 60 0,0
05.12.2019 12:00:00 3,6 2,4 2,0 6,1 10,1 10 6 18 10 E 1024,6 5 36 0,0
05.12.2019 11:00:00 1,2 0,5 2,5 6,2 10,1 11 6 18 10 NE 1025,3 0,3 60 0,0
05.12.2019 10:00:00 0,7 0,1 0,1 6,2 10,2 9 5 20 11 ENE 1025,0 4,0 60 0,0
05.12.2019 09:00:00 -0,5 -0,9 -5,4 6,3 10,2 10 5 14 8 ENE 1024,6 5 22 0,0
05.12.2019 08:00:00 -3,0 -4,0 -6,2 6,3 10,2 11 6 13 7 E 1024,3 4,9 0 0,0
05.12.2019 07:00:00 -0,6 -1,2 -5,0 6,4 10,2 6 3 18 10 ENE 1023,4 4,5 0 0,0
05.12.2019 06:00:00 -1,8 -2,4 -6,0 6,4 10,3 11 6 14 8 ENE 1022,8 5 0 0,0
05.12.2019 05:00:00 -2,1 -2,9 -4,5 6,5 10,2 14 7 19 10 E 1022,8 4,0 0 0,0
05.12.2019 04:00:00 -2,2 -2,6 -5,5 6,5 10,3 14 7 18 10 E 1023,0 4,5 0 0,0
05.12.2019 03:00:00 -0,5 -1,1 -4,7 6,5 10,2 8 4 12 7 E 1023,1 5 0 0,0
05.12.2019 02:00:00 -0,1 -1,1 -4,2 6,6 10,2 6 3 12 6 NNE 1022,7 8 0 0,0
05.12.2019 01:00:00 0,3 -1,1 -1,9 6,6 10,3 11 6 22 12 E 1022,1 9 0 0,0
05.12.2019 00:00:00 0,8 0,1 -2,2 6,7 10,3 14 7 23 12 ENE 1021,7 10 0 0,0
04.12.2019 23:00:00 1,4 0,2 -2,8 6,7 10,3 14 8 22 12 ENE 1021,3 9 0 0,0
04.12.2019 22:00:00 -0,8 -1,8 -3,1 6,7 10,3 9 5 16 9 ENE 1021,6 8 0 0,0
04.12.2019 21:00:00 1,0 -0,3 -1,7 6,7 10,3 11 6 18 10 NE 1021,8 7 0 0,0
04.12.2019 20:00:00 0,6 -0,7 -1,7 6,7 10,3 13 7 23 13 ENE 1021,0 7 0 0,0
04.12.2019 19:00:00 0,1 -0,3 -4,0 6,7 10,3 11 6 14 8 ENE 1021,3 4,6 0 0,0
04.12.2019 18:00:00 1,3 0,1 -3,5 6,7 10,3 8 5 13 7 NE 1020,8 7 0 0,0
04.12.2019 17:00:00 1,5 -0,1 -1,1 6,6 10,3 11 6 15 8 E 1020,3 8 23 0,0
04.12.2019 16:00:00 5,3 2,5 5,5 6,6 10,3 14 8 17 9 E 1019,2 12 60 0,0
04.12.2019 15:00:00 5,4 2,0 5,6 6,6 10,4 10 5 19 10 E 1018,8 12 8 0,0
04.12.2019 14:00:00 5,2 1,7 6,2 6,6 10,4 15 8 27 15 E 1019,1 17 50 0,0
04.12.2019 13:00:00 4,9 1,6 4,4 6,6 10,4 16 9 23 13 ENE 1019,4 18 11 0,0
04.12.2019 12:00:00 4,9 1,7 5,7 6,6 10,4 14 8 26 14 E 1019,6 17 49 0,0
04.12.2019 11:00:00 4,1 1,1 4,3 6,7 10,4 20 11 36 20 ENE 1019,9 17 60 0,0
04.12.2019 10:00:00 2,8 0,7 1,8 6,8 10,4 21 11 37 20 ENE 1019,9 16 60 0,0
04.12.2019 09:00:00 1,5 0,0 -5,8 6,9 10,4 21 11 36 19 ENE 1020,3 11 33 0,0
04.12.2019 08:00:00 -3,0 -3,4 -5,9 6,9 10,4 3 2 22 12 SSW 1021,3 3,2 0 0,0
04.12.2019 07:00:00 -1,1 -2,1 -6,2 7,0 10,4 16 9 26 14 E 1021,2 9 0 0,0

tt = Température de l'air
td = dewpoint
tt 5cm = Température de l'air 5cm
tt -20cm = Température de l'air -20cm
tt -100cm = Température de l'air -100cm
ff = Vitesse du vent
fx = gusts
dd = Direction du vent
ppp = reduced air pressure
vv = visibility
sd = Ensoleillement
rr = Quantités de précipitations

stations d'obs. à proximité